Location: Campillo
(40.8621°N, 4.2488°W)
Time: 04:34:56
(UTC+00:00)

USA 306 - Pass Details

Date: 02 October 2021
Orbit: 564 x 573 km, 54.0° (Epoch: 24 September)

Event Time Altitude Azimuth Distance (km) Brightness Sun altitude
Rises 21:00:13 0° 292° (WNW) 2,760 7.4 -34.3°
Reaches altitude 10° 21:03:33 10° 264° (W) 1,860 6.1 -34.9°
Enters shadow 21:03:53 11° 260° (W) 1,804 5.9 -35.0°
